Wind_Speed
21 20 19 18 21 23 26 25 25 25 25 24 24 22 20 18 18 19 21 22 22 21 18 18 20 23 22 19 19 20 19 20 20 18 17 18 19 19 19 20 20 21 21
20 19 18 19 22 26 28 28 27 27 26 25 24 24 24 22 21 21 22 22 22 20 18 18 20 20 21 20 18 19 18 19 20 19 18 19 20 20 19 19 19 17 17
20 19 19 21 23 26 29 31 30 28 27 26 25 25 26 26 26 25 24 24 24 23 22 20 20 21 19 20 19 20 19 20 21 20 19 19 20 20 18 18 16 14 15
19 19 20 21 23 26 28 30 30 29 28 26 26 26 26 27 28 29 27 26 25 24 23 21 20 20 21 23 22 22 21 22 23 22 19 19 20 18 17 17 15 14 13
22 21 21 21 22 24 26 27 28 29 28 26 26 25 25 25 27 30 31 29 27 24 23 22 21 19 19 22 22 22 21 22 23 21 18 18 18 16 16 16 14 11 11
26 25 25 24 24 24 24 24 24 26 26 24 24 25 25 24 26 29 30 30 28 25 24 23 22 20 19 21 22 21 18 19 21 19 16 16 17 16 16 15 12 10 9
28 27 27 27 26 26 26 25 24 23 23 24 24 24 24 23 24 25 26 25 25 26 24 24 23 23 22 21 23 24 22 20 20 19 17 16 16 16 15 15 12 9 8
28 27 28 30 28 27 27 26 25 23 23 24 25 25 26 24 23 21 21 20 20 22 24 25 24 25 26 24 24 27 26 24 22 20 17 16 15 15 15 14 13 10 8
27 27 28 29 30 30 30 28 26 24 23 22 23 24 24 24 25 24 23 21 20 22 23 24 24 25 26 26 24 28 30 28 26 23 20 17 17 17 17 16 15 13 11
28 29 29 29 30 31 32 30 27 25 25 24 23 23 23 23 23 24 25 24 22 22 23 24 26 27 27 27 26 27 31 31 30 27 23 20 19 19 18 17 17 15 13
30 31 32 32 31 31 30 29 27 26 25 25 25 25 24 23 22 22 23 25 25 23 23 24 25 27 27 27 28 28 31 34 34 30 25 23 23 21 20 19 19 17 16
32 33 34 34 33 30 27 26 26 26 24 23 23 24 23 22 21 21 21 24 25 25 24 23 24 25 25 26 26 26 31 36 34 29 26 25 24 23 21 21 21 20 18
31 32 33 33 31 27 25 24 23 24 23 22 21 20 20 19 19 18 19 19 21 22 23 23 23 25 25 26 26 27 31 34 31 26 26 26 25 23 22 23 23 21 20
25 24 24 24 24 23 23 22 21 21 21 21 20 20 19 18 17 16 16 17 17 19 20 22 23 25 26 27 28 28 29 30 26 24 23 23 24 24 23 23 24 23 23
20 18 15 13 16 18 20 20 19 18 18 19 20 19 19 19 18 18 18 18 19 20 21 22 23 26 26 26 27 26 26 27 25 22 22 23 23 24 25 25 24 25 25
15 11 6 2 8 13 15 16 16 15 15 17 18 19 19 19 19 20 20 21 22 23 24 24 24 26 28 29 28 27 27 27 25 23 23 24 23 25 28 28 27 26 25
12 8 6 4 6 8 10 12 13 13 14 15 16 17 18 20 21 22 23 24 25 26 27 27 27 28 29 31 31 31 30 29 28 26 27 27 27 28 30 31 30 28 26
12 9 7 7 7 7 8 9 9 10 11 12 14 15 17 19 21 22 24 25 26 27 28 29 30 30 31 32 32 33 32 31 30 29 28 28 29 30 32 33 32 30 28
11 10 9 9 9 8 7 6 5 6 7 10 12 14 16 17 18 19 20 22 24 26 28 29 30 31 31 32 32 32 32 31 30 29 29 29 30 31 33 35 34 33 31
9 9 9 8 8 7 5 4 1 2 5 7 10 11 12 13 14 15 17 18 20 21 23 25 27 28 28 28 28 29 30 30 30 30 30 30 29 31 33 34 33 33 32
6 6 6 5 4 4 3 2 2 2 4 5 6 7 8 10 10 11 12 14 15 15 15 17 20 22 24 24 23 24 26 28 29 29 29 29 30 32 33 32 31 31 32
6 4 4 3 3 3 3 3 3 4 4 4 4 5 6 7 7 7 9 9 7 6 6 10 13 16 19 20 21 22 23 25 26 26 27 28 31 32 31 30 30 31 32
10 7 6 5 4 4 3 4 5 5 5 5 5 5 5 5 5 6 6 6 4 3 4 7 10 13 16 18 20 21 22 23 23 25 25 26 27 28 28 28 30 31 32
12 10 8 6 5 5 4 5 5 5 5 5 4 4 5 6 6 7 7 7 6 6 6 8 9 11 12 14 17 18 19 21 21 22 22 21 21 23 25 27 29 31 33
14 12 11 9 7 6 6 6 6 6 6 6 6 6 6 7 8 9 9 10 10 10 9 10 10 11 12 12 12 14 16 18 19 19 19 19 20 22 25 27 30 33 35
13 13 12 11 10 9 8 7 7 7 7 7 7 7 7 8 9 11 12 13 13 13 13 14 14 14 15 15 15 14 15 16 18 19 20 21 22 24 26 29 32 34 35
Wind_Direction
292 290 283 275 262 247 240 241 240 242 244 244 246 247 247 247 246 242 238 240 242 246 250 251 249 246 236 237 239 236 242 255 261 264 265 268 278 284 286 284 284 281 273
290 289 282 271 257 246 242 242 244 244 246 247 247 245 242 241 242 242 241 241 243 244 250 255 256 250 244 247 241 240 248 257 260 263 266 271 281 286 288 282 283 282 272
293 289 280 270 261 254 249 252 250 247 249 252 251 248 244 242 241 241 242 243 244 247 251 256 257 253 247 244 250 254 256 254 256 262 267 274 283 287 285 280 279 278 271
291 286 280 275 269 263 258 259 256 252 253 256 254 250 248 246 242 241 242 245 246 247 250 255 252 246 243 253 258 258 255 250 250 256 265 276 282 283 281 277 276 276 267
290 285 282 279 273 269 269 269 267 263 257 256 255 253 253 250 246 243 242 244 244 244 247 252 252 250 253 253 250 248 248 244 242 249 261 272 275 277 277 275 277 275 263
284 282 280 278 275 274 275 274 276 269 261 255 254 253 255 254 252 246 244 244 243 244 246 249 249 247 251 251 247 241 243 233 233 245 257 265 268 272 271 273 275 273 259
278 275 273 272 271 269 270 273 275 271 261 250 248 247 250 254 253 249 247 249 246 242 245 250 249 245 246 249 248 242 239 233 233 241 252 261 266 266 265 267 267 265 253
278 274 271 269 266 265 265 266 266 266 259 250 246 245 246 247 249 249 252 255 251 247 248 250 250 248 247 250 253 240 233 229 233 239 248 257 259 257 257 260 255 250 241
282 277 272 269 266 262 260 260 260 259 256 254 251 249 248 247 247 246 249 254 254 252 251 253 255 255 251 249 253 242 229 226 229 233 241 248 251 250 248 250 246 240 236
285 281 276 270 266 262 258 255 253 251 248 248 249 250 252 252 250 248 248 250 252 252 251 253 256 255 252 246 250 245 228 224 225 228 233 238 242 246 244 243 241 238 234
290 285 279 272 265 261 257 252 248 246 243 244 245 247 249 250 249 250 249 245 247 250 253 254 255 255 251 246 247 243 228 223 224 225 228 233 237 242 243 241 235 233 233
292 287 279 272 264 257 252 249 245 242 241 242 244 245 246 248 248 248 248 244 244 249 253 253 252 250 247 243 243 237 226 225 227 225 227 231 234 236 237 237 234 229 230
296 288 279 270 260 250 242 241 240 238 237 237 239 240 241 241 244 246 243 241 242 246 248 249 247 245 243 238 236 235 228 226 224 225 230 231 232 232 232 234 234 232 230
306 298 285 267 251 240 233 233 234 233 230 230 232 234 233 234 239 241 240 240 244 249 254 255 250 243 241 239 235 233 226 222 226 235 236 234 234 234 233 234 236 237 236
320 315 297 262 234 224 222 224 225 228 228 227 229 231 233 237 243 246 247 250 254 257 259 259 253 244 240 239 233 229 229 230 237 241 241 238 237 237 236 235 238 241 243
340 344 343 214 197 202 208 212 216 221 224 226 229 234 240 247 252 257 259 258 259 259 259 258 254 247 241 239 238 238 235 237 244 244 241 241 242 242 239 238 241 245 249
5 17 42 95 147 175 190 197 204 211 217 224 231 237 244 251 257 261 263 262 262 261 259 256 253 249 245 242 240 240 243 246 248 245 241 240 243 244 240 238 241 246 250
23 41 64 89 113 138 160 178 192 205 218 231 239 245 249 255 261 265 267 267 265 262 259 255 251 248 245 243 242 241 242 244 245 244 241 241 246 248 243 239 239 243 249
32 51 68 83 94 103 116 134 164 201 227 241 248 253 257 261 265 269 272 273 270 265 259 254 249 245 243 242 241 240 240 241 242 241 241 245 251 250 245 239 237 242 248
34 52 65 76 85 91 98 106 129 255 265 264 261 260 260 263 269 275 280 280 277 270 260 251 245 241 238 237 238 237 236 237 237 239 245 248 249 251 245 236 236 242 249
25 39 49 56 63 66 65 57 26 338 307 284 271 267 266 269 275 283 290 291 285 274 258 243 235 230 227 229 231 232 232 234 238 242 245 243 245 248 241 235 239 247 254
28 29 31 35 41 46 44 37 24 12 0 343 317 299 290 282 279 293 308 309 304 282 246 225 218 218 219 222 225 228 232 235 238 239 240 244 245 240 235 237 245 253 258
43 48 53 55 57 56 44 29 18 11 0 350 336 325 315 305 296 298 314 323 317 287 234 216 216 219 222 226 229 232 233 233 236 241 249 250 241 233 235 243 251 258 263
46 48 48 45 43 38 28 16 7 3 0 354 337 322 315 307 299 297 299 301 297 284 265 248 242 239 239 238 234 235 236 238 240 243 248 246 239 239 246 253 259 264 267
45 47 47 41 32 22 10 359 352 349 347 344 337 327 318 312 304 299 296 292 288 282 275 266 257 250 243 242 242 240 241 242 244 248 250 249 250 253 258 264 269 272 274
43 46 46 42 35 26 16 6 359 356 353 348 342 335 328 321 315 309 302 297 291 283 274 267 262 257 254 253 251 249 248 247 250 252 253 254 257 260 266 273 277 278 277
Height
5778 5778 5778 5779 5779 5778 5777 5779 5782 5786 5789 5792 5793 5795 5797 5799 5800 5803 5805 5808 5810 5813 5814 5816 5817 5818 5817 5818 5824 5827 5830 5832 5833 5833 5834 5834 5835 5835 5834 5834 5834 5834 5833
5774 5772 5773 5774 5775 5775 5774 5774 5776 5780 5783 5786 5788 5790 5792 5794 5796 5798 5801 5803 5806 5808 5810 5811 5813 5814 5814 5816 5820 5822 5825 5827 5828 5829 5829 5830 5830 5830 5830 5830 5830 5829 5829
5769 5768 5768 5769 5769 5770 5770 5771 5772 5774 5776 5779 5781 5783 5785 5788 5790 5793 5795 5798 5801 5803 5805 5806 5808 5810 5810 5810 5815 5818 5821 5823 5823 5824 5825 5825 5825 5825 5826 5826 5826 5826 5826
5765 5764 5763 5763 5764 5764 5764 5765 5766 5767 5769 5772 5774 5776 5778 5780 5783 5786 5789 5792 5795 5797 5799 5800 5802 5805 5808 5809 5811 5813 5815 5817 5818 5820 5821 5821 5821 5821 5822 5823 5823 5823 5823
5760 5759 5759 5758 5758 5758 5758 5759 5759 5760 5762 5765 5767 5770 5771 5773 5776 5779 5782 5785 5788 5790 5793 5794 5797 5800 5802 5804 5805 5806 5808 5811 5813 5815 5817 5818 5818 5818 5819 5820 5820 5819 5819
5754 5753 5753 5753 5753 5753 5753 5753 5753 5754 5755 5758 5760 5763 5765 5767 5769 5771 5775 5778 5781 5784 5786 5788 5791 5794 5795 5796 5798 5800 5802 5805 5809 5810 5812 5814 5814 5815 5816 5816 5816 5816 5816
5746 5746 5746 5746 5747 5747 5748 5748 5748 5748 5749 5751 5753 5756 5759 5761 5763 5765 5768 5771 5774 5777 5780 5782 5786 5788 5789 5790 5792 5795 5797 5799 5803 5806 5807 5809 5810 5811 5812 5813 5813 5814 5814
5737 5738 5737 5737 5739 5739 5740 5740 5741 5742 5743 5744 5746 5749 5751 5754 5756 5759 5762 5765 5768 5770 5773 5775 5778 5781 5783 5785 5787 5790 5792 5794 5799 5801 5803 5804 5806 5807 5808 5810 5810 5811 5812
5729 5729 5729 5729 5729 5729 5731 5732 5733 5735 5736 5737 5739 5741 5744 5747 5749 5752 5755 5758 5761 5764 5766 5768 5771 5773 5776 5779 5781 5783 5786 5790 5793 5796 5799 5800 5801 5802 5804 5806 5807 5808 5809
5721 5719 5719 5719 5719 5719 5720 5723 5725 5727 5729 5731 5733 5735 5738 5740 5743 5745 5749 5752 5755 5757 5760 5762 5764 5766 5769 5771 5774 5776 5779 5783 5787 5790 5793 5796 5797 5798 5800 5802 5804 5805 5806
5712 5709 5707 5707 5707 5708 5710 5713 5716 5719 5721 5724 5727 5729 5731 5734 5736 5739 5741 5744 5748 5750 5753 5755 5757 5758 5761 5763 5766 5768 5771 5775 5779 5783 5787 5790 5792 5794 5796 5797 5799 5801 5803
5700 5697 5695 5694 5695 5698 5701 5704 5707 5710 5714 5717 5719 5722 5724 5727 5729 5732 5734 5737 5740 5743 5746 5748 5750 5751 5753 5755 5758 5761 5764 5768 5772 5776 5780 5783 5786 5788 5791 5793 5795 5797 5799
5689 5685 5682 5681 5683 5687 5691 5695 5699 5703 5706 5710 5713 5715 5718 5721 5723 5726 5728 5731 5734 5736 5738 5740 5742 5744 5746 5749 5752 5755 5758 5761 5764 5769 5773 5776 5779 5782 5785 5788 5791 5792 5794
5680 5674 5670 5669 5672 5678 5683 5688 5692 5696 5700 5703 5707 5710 5713 5716 5718 5720 5722 5725 5727 5729 5730 5732 5734 5737 5740 5743 5746 5749 5752 5755 5758 5763 5767 5770 5773 5776 5779 5782 5785 5787 5788
5673 5668 5664 5663 5666 5671 5677 5682 5687 5691 5695 5698 5702 5705 5709 5711 5714 5716 5717 5719 5721 5723 5724 5726 5728 5731 5734 5736 5739 5743 5746 5750 5754 5758 5761 5763 5766 5770 5773 5776 5779 5781 5783
5671 5667 5663 5662 5664 5669 5674 5679 5683 5687 5691 5695 5698 5702 5705 5707 5709 5711 5712 5714 5715 5717 5718 5720 5721 5724 5727 5730 5733 5737 5740 5744 5748 5751 5755 5757 5760 5764 5767 5770 5773 5775 5776
5672 5668 5666 5665 5667 5670 5673 5677 5681 5685 5688 5692 5695 5698 5701 5702 5704 5705 5706 5707 5708 5709 5710 5712 5714 5716 5718 5722 5725 5729 5733 5737 5740 5744 5747 5750 5753 5757 5760 5762 5765 5768 5769
5674 5671 5669 5669 5670 5672 5674 5677 5680 5684 5687 5689 5692 5694 5696 5698 5698 5699 5699 5699 5700 5700 5701 5702 5704 5707 5710 5713 5717 5721 5725 5728 5732 5735 5739 5743 5746 5749 5751 5754 5757 5759 5761
5677 5675 5674 5673 5674 5675 5677 5679 5681 5684 5686 5688 5689 5690 5691 5692 5693 5693 5692 5691 5691 5691 5691 5692 5695 5698 5701 5704 5708 5712 5716 5720 5724 5728 5731 5735 5737 5740 5742 5745 5748 5750 5752
5680 5679 5678 5677 5678 5678 5680 5681 5683 5684 5685 5685 5686 5687 5687 5688 5688 5687 5686 5685 5683 5682 5682 5684 5686 5689 5693 5696 5700 5704 5708 5713 5717 5720 5723 5726 5728 5730 5733 5735 5739 5741 5743
5682 5681 5681 5680 5681 5681 5682 5682 5683 5683 5683 5683 5684 5684 5684 5684 5684 5683 5682 5680 5678 5676 5675 5677 5679 5683 5687 5691 5694 5698 5702 5706 5709 5712 5715 5717 5720 5722 5724 5727 5730 5733 5734
5684 5683 5683 5683 5682 5683 5683 5683 5684 5683 5683 5682 5682 5682 5682 5681 5681 5680 5679 5677 5675 5673 5673 5674 5676 5679 5683 5686 5690 5693 5696 5699 5702 5705 5707 5709 5712 5714 5716 5719 5722 5724 5725
5686 5685 5685 5684 5684 5684 5684 5684 5684 5683 5683 5682 5681 5681 5681 5680 5680 5679 5678 5676 5675 5674 5674 5675 5676 5678 5681 5683 5685 5688 5690 5693 5695 5698 5700 5702 5703 5706 5709 5712 5714 5715 5716
5690 5689 5688 5687 5687 5686 5686 5685 5685 5684 5683 5682 5681 5680 5679 5679 5678 5678 5677 5676 5675 5675 5675 5675 5676 5677 5678 5679 5681 5683 5685 5687 5690 5692 5694 5696 5698 5701 5703 5705 5706 5706 5706
5693 5692 5690 5689 5689 5688 5687 5686 5685 5684 5683 5681 5680 5679 5679 5678 5677 5676 5675 5674 5674 5673 5673 5674 5674 5675 5675 5677 5678 5679 5681 5683 5685 5687 5689 5691 5693 5695 5696 5697 5697 5697 5696
5696 5694 5693 5691 5690 5689 5688 5686 5685 5684 5683 5681 5680 5679 5678 5677 5675 5674 5673 5672 5671 5671 5671 5671 5671 5672 5672 5673 5675 5676 5677 5679 5680 5682 5684 5685 5687 5688 5688 5688 5688 5687 5686